Location: São Paulo
(23.5507°S, 46.6334°W)
Time: 10:38:39
(UTC-03:00)

Transit 4A - Pass Details

Date: 20 February 2026
Orbit: 864 x 977 km, 66.8° (Epoch: 11 March)

Event Time Altitude Azimuth Distance (km) Brightness Sun altitude
Rises 15:45:40 0° 297° (WNW) 3,663 11.8 39.5°
Reaches altitude 10° 15:49:12 10° 278° (W) 2,713 11.6 38.7°
Maximum altitude 15:53:14 17° 238° (WSW) 2,214 10.9 37.8°
Drops below altitude 10° 15:57:15 10° 198° (SSW) 2,691 10.6 36.9°
Sets 16:00:46 0° 179° (S) 3,621 10.9 36.1°
